Flag for U.S.A. Weather past 2 weeks in Redmond, Washington, U.S.A.

Now
64 °F

Sunny.


Feels Like: 64 °F
Forecast: 67 / 91 °F
Wind: 5 mph from South

Location: Seattle Boeing Field

Current Time: Jul 6, 2015 at 7:44:08 AM

Latest Report: Jul 6, 2015 at 6:53 AM


Visibility: 10 mi

Pressure: 29.98 "Hg

Humidity: 70%

Dew point: 54 °F

Location of RedmondLocation

Historic Weather in Redmond — Graph

°F

Redmond temperature yesterday

Maximum temperature yesterday: 90 °F (at 4:53 PM)
Minimum temperature yesterday: 67 °F (at 5:53 AM)
Average temperature yesterday: 79 °F

Past Weeks' High & Low Weather Summary

 TemperatureHumidityPressure
High92 °F (Jun 27, 4:53 PM)81% (Jun 30, 3:53 AM)30.16 "Hg (Jun 30, 3:53 AM)
Low56 °F (Jun 23, 5:53 AM)15% (Jul 4, 3:53 PM)29.75 "Hg (Jul 4, 6:53 PM)
Average76 °F46%29.98 "Hg
* Reported Jun 21 5:53 AM — Jul 6 5:53 AM, Redmond, Weather by CustomWeather, © 2015

Note: Actual official high and low records may vary slightly from our data, if they occured in-between our weather recording intervals... More about our weather records

Advertising

Redmond weather history for previous 24 hours

 ConditionsComfort  
Time TempWeatherWind HumidityBarometerVisibility
5:53 AM
Mon, Jul 6
63 °FPassing clouds.5 mph70%29.97 "Hg10 mi
4:53 AM65 °FClear.7 mph66%29.96 "Hg10 mi
3:53 AM66 °FClear.9 mph61%29.95 "Hg10 mi
2:53 AM66 °FClear.5 mph65%29.94 "Hg10 mi
1:53 AM68 °FClear.5 mph61%29.93 "Hg10 mi
12:53 AM71 °FClear.5 mph57%29.90 "Hg10 mi
11:53 PM
Sun, Jul 5
76 °FClear.No wind37%29.88 "Hg10 mi
10:53 PM79 °FClear.3 mph31%29.86 "Hg10 mi
9:53 PM82 °FSunny.3 mph27%29.85 "Hg10 mi
8:53 PM84 °FSunny.5 mph25%29.83 "Hg10 mi
7:53 PM87 °FSunny.6 mph21%29.81 "Hg10 mi
6:53 PM88 °FPartly sunny.7 mph22%29.81 "Hg10 mi
5:53 PM90 °FPartly sunny.7 mph21%29.80 "Hg10 mi
4:53 PM90 °FSunny.7 mph22%29.81 "Hg10 mi
3:53 PM89 °FSunny.8 mph22%29.81 "Hg10 mi
2:53 PM88 °FPartly sunny.10 mph24%29.82 "Hg10 mi
1:53 PM85 °FSunny.9 mph28%29.83 "Hg10 mi
12:53 PM84 °FSunny.7 mph27%29.83 "Hg10 mi
11:53 AM83 °FSunny.8 mph31%29.83 "Hg10 mi
10:53 AM80 °FSunny.5 mph35%29.83 "Hg10 mi
9:53 AM75 °FSunny.5 mph47%29.84 "Hg10 mi
8:53 AM74 °FSunny.5 mph50%29.83 "Hg8 mi
7:53 AM71 °FSunny.No wind55%29.83 "Hg7 mi
Weather by CustomWeather, © 2015

See weather overviewHow to use our weather pages